Location: *
(46.3500°N, 10.9000°E)
Time: 22:20:45
(UTC+00:00)

Explorer 7 - Pass Details

Date: 21 April 2021
Orbit: 484 x 677 km, 50.3° (Epoch: 05 May)

Event Time Altitude Azimuth Distance (km) Brightness Sun altitude
Rises 01:36:15 0° 289° (WNW) 2,872 - -23.7°
Reaches altitude 10° 01:38:51 10° 275° (W) 1,998 - -23.4°
Maximum altitude 01:42:31 24° 222° (SW) 1,342 - -23.0°
Drops below altitude 10° 01:46:18 10° 170° (S) 2,066 - -22.6°
Sets 01:49:03 0° 156° (SSE) 2,994 - -22.3°
